Home > Weather > Labrador City > Past weeks

Flag for Canada Past Weather in Labrador City, Newfoundland and Labrador, Canada — Yesterday and Last 2 Weeks

Now
41 °F

Partly sunny.


Feels Like: 34 °F
Forecast: N/A
Wind: 12 mph from Northeast

Location: Wabush Lake

Current Time: May 31, 2016 at 8:49:24 PM

Latest Report: May 31, 2016 at 8:00 PM


Visibility: 15 mi

Pressure: 30.02 "Hg (28.03 "Hg at 558m altitude)

Humidity: 70%

Dew Point: 32 °F

Location of Labrador CityLocation

Past Weather in Labrador City — Graph

°F

Labrador City Temperature Yesterday

Maximum temperature yesterday: 54 °F (at 9:00 PM)
Minimum temperature yesterday: 45 °F (at 11:55 PM)
Average temperature yesterday: 50 °F

High & Low Weather Summary for the Past Weeks

 TemperatureHumidityPressure
High82 °F (May 24, 3:00 PM)100% (May 18, 2:00 AM)30.33 "Hg (May 18, 2:00 AM)
Low25 °F (May 22, 6:00 AM)20% (May 24, 3:00 PM)29.49 "Hg (May 30, 10:00 PM)
Average47 °F69%29.97 "Hg
* Reported May 16 7:00 PM — May 31 7:00 PM, Labrador City, Weather by CustomWeather, © 2016

Note: Actual official high and low records may vary slightly from our data, if they occured in-between our weather recording intervals... More about our weather records

Advertising

Labrador City Weather History for the Previous 24 Hours

Scroll right to see more
 ConditionsComfort  
Time TempWeatherWind HumidityBarometerVisibility
7:00 PM
Tue, May 31
41 °FPartly sunny.12 mph76%30.00 "Hg15 mi
6:00 PM43 °FMore clouds than sun.14 mph71%29.97 "Hg15 mi
5:00 PM41 °FMostly cloudy.13 mph76%29.95 "Hg15 mi
4:00 PM41 °FMostly cloudy.13 mph76%29.92 "Hg15 mi
3:00 PM41 °FMostly cloudy.10 mph76%29.89 "Hg15 mi
2:00 PM39 °FOvercast.14 mph81%29.86 "Hg15 mi
1:00 PM39 °FOvercast.16 mph81%29.83 "Hg15 mi
12:00 PM39 °FMostly cloudy.13 mph81%29.80 "Hg15 mi
11:00 AM37 °FLow clouds.12 mph93%29.77 "Hg15 mi
10:00 AM36 °FLow clouds.15 mph93%29.75 "Hg15 mi
9:00 AM36 °FDrizzle. Low clouds.13 mph93%29.72 "Hg10 mi
8:00 AM34 °FDrizzle. Fog.14 mph100%29.69 "Hg6 mi
7:00 AM34 °FLight rain. Fog.12 mph100%29.65 "Hg6 mi
6:00 AM34 °FLight rain. Fog.12 mph100%29.63 "Hg2 mi
5:46 AM36 °FLight rain. Fog.10 mph93%29.63 "Hg2 mi
5:00 AM36 °FLight rain. Fog.14 mph93%29.61 "Hg3 mi
4:00 AM36 °FLight rain. Fog.10 mph100%29.58 "Hg3 mi
3:00 AM37 °FLight rain. Fog.12 mph100%29.55 "Hg4 mi
2:00 AM39 °FLow clouds.10 mph100%29.53 "Hg9 mi
1:00 AM43 °FLight rain. Mostly cloudy.9 mph100%29.51 "Hg9 mi
12:52 AM43 °FLight rain. Mostly cloudy.7 mph100%29.52 "Hg9 mi
12:00 AM45 °FLight rain. Fog.12 mph100%29.51 "Hg6 mi
11:55 PM
Mon, May 30
45 °FLight rain. Fog.15 mph100%29.51 "Hg3 mi
11:00 PM50 °FLow clouds.8 mph94%29.50 "Hg9 mi
10:50 PM50 °FLow clouds.7 mph100%29.49 "Hg9 mi
10:00 PM54 °FLight rain. Fog.6 mph94%29.49 "Hg3 mi
9:00 PM54 °FLight rain. Fog.3 mph94%29.50 "Hg3 mi
8:00 PM52 °FLight rain. Fog.2 mph100%29.52 "Hg3 mi
Weather by CustomWeather, © 2016

See weather overviewHow to use our weather pages